sat.trackr.live / text

‹ back to catalog

STARLINK-3570

NORAD 51882 · 2022-022AG

PAYLOAD ACTIVE UNKNOWN

§ Identity

Operator
Country
US
Launch date
2022-03-03
Launch site
AFETR
Launch vehicle
Mass (kg)
RCS (m²)

Purposes: comms

External: N2YO · Heavens-Above · Gunter

§ Orbital elements

Epoch: 2026-05-25T00:40:09.149952Z

Period
95.44 min
Inclination
53.2133°
Eccentricity
0.0001398
Mean motion
15.08846774 rev/d
Perigee alt
538.8 km
Apogee alt
540.7 km
Semi-major
6,917.9 km
B*
-1.7159e-5
RAAN
16.4344°
Arg perigee
105.1124°
Mean anomaly
255.0023°
Rev number
23,482

§ Raw data

STARLINK-35701 51882U 22022AG  26145.02788368 -.00000561  00000+0 -17159-4 0  99922 51882  53.2133  16.4344 0001398 105.1124 255.0023 15.08846774234826

JSON: /api/v1/satellites/51882 · /tle

For live sub-satellite position, see the globe view (requires WebGL).

§ Visibility from observer

Set your observer location to see the next 7 days of passes ≥ 10°. The values pass through the URL so the page stays shareable.

No JS? Fill the form by hand. The geolocation button needs JavaScript.